�N����,����,�~����,�C��,���x,�C��,����,���ϕ���,�ő�u�ԕ���,�ő厞����,���˗�,�I�_���x,�n�����x,�ő啗���N��,DTYPE
"24/02/12","00:10",0.0,1.3,92.7,1014.0,328.5,1.2,2.0,336.2,0.00,0.3,6.4,"00:07:28",1
"24/02/12","00:20",0.0,0.9,92.9,1013.8,326.4,1.8,3.1,338.8,0.00,-0.1,6.7,"00:14:32",1
"24/02/12","00:30",0.0,1.0,93.4,1014.2,324.6,1.8,2.2,346.3,0.00,0.1,6.6,"00:24:48",1
"24/02/12","00:40",0.0,1.1,93.6,1014.2,306.4,1.5,2.9,323.6,0.00,0.2,6.4,"00:37:36",1
"24/02/12","00:50",0.0,2.0,93.8,1014.2,314.8,2.2,2.9,323.5,0.00,1.1,6.5,"00:42:48",1
"24/02/12","01:00",0.0,2.6,93.5,1014.2,317.1,2.7,4.2,327.0,0.00,1.7,6.5,"00:55:12",1
"24/02/12","01:10",0.0,2.8,93.3,1014.7,309.5,2.3,3.4,317.1,0.00,1.9,6.5,"01:02:08",1
"24/02/12","01:20",0.0,3.1,92.9,1014.2,309.7,2.5,3.7,326.1,0.00,2.1,6.3,"01:18:08",1
"24/02/12","01:30",0.0,3.4,92.2,1014.9,303.5,2.8,4.9,323.3,0.00,2.3,6.4,"01:29:14",1
"24/02/12","01:40",0.0,3.9,90.9,1015.4,298.2,3.4,4.7,301.4,0.00,2.6,6.2,"01:31:00",1
"24/02/12","01:50",0.0,4.2,89.1,1015.9,306.7,3.5,5.5,306.4,0.00,2.6,6.4,"01:47:56",1
"24/02/12","02:00",0.0,4.3,86.7,1016.1,306.2,4.4,7.2,327.3,0.00,2.3,6.2,"01:56:40",1
"24/02/12","02:10",0.0,4.3,84.5,1015.9,290.7,4.2,6.6,304.4,0.00,2.0,6.2,"02:05:46",1
"24/02/12","02:20",0.0,4.2,83.3,1015.9,294.3,4.4,7.5,328.9,0.00,1.7,6.4,"02:17:14",1
"24/02/12","02:30",0.0,4.1,82.7,1016.4,297.6,4.4,8.3,315.9,0.00,1.5,6.3,"02:25:36",1
"24/02/12","02:40",0.0,4.1,82.3,1016.1,298.2,4.4,6.7,299.7,0.00,1.4,6.3,"02:38:58",1
"24/02/12","02:50",0.0,4.1,82.0,1016.1,309.7,4.7,6.8,324.2,0.00,1.3,6.2,"02:46:12",1
"24/02/12","03:00",0.0,3.9,81.9,1015.9,302.1,3.9,6.0,332.2,0.00,1.1,6.2,"02:50:16",1
"24/02/12","03:10",0.0,4.2,81.8,1016.1,305.9,4.7,7.9,341.1,0.00,1.4,6.3,"03:04:52",1
"24/02/12","03:20",0.0,3.9,82.1,1015.9,303.1,4.7,9.4,337.8,0.00,1.2,6.2,"03:11:54",1
"24/02/12","03:30",0.0,3.7,83.0,1015.9,315.6,4.7,7.2,342.5,0.00,1.1,6.2,"03:22:26",1
"24/02/12","03:40",0.0,3.5,83.6,1015.9,313.8,3.7,8.7,297.1,0.00,1.0,6.1,"03:32:20",1
"24/02/12","03:50",0.0,3.7,83.6,1015.9,301.0,4.7,8.5,314.3,0.00,1.2,6.1,"03:46:22",1
"24/02/12","04:00",0.0,3.5,83.6,1016.1,304.0,4.2,6.0,307.8,0.00,1.0,6.2,"03:51:46",1
"24/02/12","04:10",0.0,3.4,84.0,1016.1,295.5,3.9,6.2,333.6,0.00,1.0,6.2,"04:07:28",1
"24/02/12","04:20",0.0,3.3,84.5,1016.6,300.7,4.5,6.8,256.8,0.00,1.0,6.1,"04:10:18",1
"24/02/12","04:30",0.0,3.2,85.0,1016.6,296.6,3.5,4.9,298.5,0.00,1.0,5.9,"04:29:12",1
"24/02/12","04:40",0.0,3.3,85.2,1016.8,313.0,4.0,6.4,320.8,0.00,1.1,6.2,"04:36:20",1
"24/02/12","04:50",0.0,3.5,85.0,1016.8,312.0,3.7,6.0,315.1,0.00,1.3,6.2,"04:44:26",1
"24/02/12","05:00",0.0,3.4,84.8,1016.8,307.0,3.2,5.6,315.5,0.00,1.1,6.1,"04:51:16",1
"24/02/12","05:10",0.0,3.4,84.7,1017.1,317.0,3.5,5.1,314.0,0.00,1.1,6.0,"05:06:16",1
"24/02/12","05:20",0.0,3.5,84.5,1017.5,303.7,3.4,4.8,317.5,0.00,1.2,6.2,"05:18:12",1
"24/02/12","05:30",0.0,3.5,84.0,1017.5,302.3,4.6,8.7,306.1,0.00,1.1,6.0,"05:23:14",1
"24/02/12","05:40",0.0,3.4,83.9,1017.8,312.4,4.4,7.0,337.0,0.00,1.0,5.8,"05:34:38",1
"24/02/12","05:50",0.0,3.6,83.6,1018.0,323.7,4.4,8.0,327.0,0.00,1.1,5.9,"05:49:46",1
"24/02/12","06:00",0.0,3.8,82.3,1018.0,317.9,5.5,10.3,343.1,0.00,1.1,6.1,"05:53:34",1
"24/02/12","06:10",0.0,3.4,82.7,1018.2,296.9,3.6,5.9,312.3,0.00,0.8,6.1,"06:00:42",1
"24/02/12","06:20",0.0,3.3,83.8,1018.7,295.0,3.2,7.4,311.0,0.00,0.9,5.7,"06:16:34",1
"24/02/12","06:30",0.0,3.1,84.8,1019.0,294.7,3.0,5.8,316.3,0.00,0.8,5.7,"06:25:22",1
"24/02/12","06:40",0.0,3.2,85.5,1018.7,290.8,3.5,5.4,255.4,0.00,1.0,6.0,"06:35:20",1
"24/02/12","06:50",0.0,3.1,86.6,1019.0,298.6,3.1,4.5,298.9,0.00,1.1,5.9,"06:49:10",1
"24/02/12","07:00",0.2,3.1,87.5,1019.2,296.3,3.5,5.5,303.5,0.00,1.3,6.1,"06:53:24",1
"24/02/12","07:10",0.0,2.9,88.4,1019.4,300.6,3.5,6.5,318.4,0.00,1.2,5.7,"07:06:56",1
"24/02/12","07:20",0.0,2.7,89.2,1019.4,295.5,3.1,4.3,303.9,0.00,1.1,6.0,"07:13:20",1
"24/02/12","07:30",0.0,2.8,90.0,1019.7,291.8,2.3,4.0,267.8,0.00,1.4,5.7,"07:21:00",1
"24/02/12","07:40",0.0,3.1,90.3,1019.9,302.3,3.2,5.4,328.7,0.03,1.7,5.8,"07:30:24",1
"24/02/12","07:50",0.0,3.3,90.4,1020.1,296.6,3.0,4.5,299.9,0.03,1.9,5.7,"07:42:56",1
"24/02/12","08:00",0.0,3.4,90.4,1020.4,300.2,2.6,3.9,306.9,0.03,2.0,5.6,"07:57:40",1
"24/02/12","08:10",0.0,3.6,90.4,1020.6,293.7,2.6,4.5,329.0,0.06,2.2,6.1,"08:08:24",1
"24/02/12","08:20",0.0,3.7,90.2,1021.1,289.2,1.8,3.9,312.8,0.01,2.3,5.9,"08:12:32",1
"24/02/12","08:30",0.0,3.7,90.3,1021.1,264.3,1.8,2.7,255.2,0.07,2.3,5.7,"08:28:00",1
"24/02/12","08:40",0.0,4.3,90.5,1020.8,250.1,1.7,2.7,248.0,0.15,2.9,5.9,"08:38:00",1
"24/02/12","08:50",0.0,4.6,90.1,1021.3,240.6,1.7,2.8,248.5,0.18,3.2,5.9,"08:41:04",1
"24/02/12","09:00",0.0,5.0,88.6,1021.5,239.4,2.1,3.6,242.0,0.17,3.3,5.9,"08:58:56",1
"24/02/12","09:10",0.0,5.0,87.7,1021.5,237.9,2.6,3.9,259.6,0.16,3.2,5.9,"09:01:28",1
"24/02/12","09:20",0.0,5.6,86.7,1022.0,233.7,2.5,4.2,237.0,0.26,3.6,5.7,"09:18:34",1
"24/02/12","09:30",0.0,5.8,84.9,1022.0,283.9,2.3,5.6,236.1,0.31,3.5,5.8,"09:26:22",1
"24/02/12","09:40",0.0,6.1,83.1,1022.3,283.0,3.0,7.0,324.4,0.32,3.5,6.1,"09:32:08",1
"24/02/12","09:50",0.0,6.3,81.0,1022.7,270.2,3.4,5.4,270.5,0.32,3.3,5.8,"09:44:02",1
"24/02/12","10:00",0.0,6.7,78.8,1022.7,282.8,3.7,7.7,318.7,0.37,3.3,6.2,"09:59:38",1
"24/02/12","10:10",0.0,7.3,77.6,1023.0,295.1,2.8,6.0,312.3,0.38,3.7,6.2,"10:01:36",1
"24/02/12","10:20",0.0,7.4,74.3,1023.0,275.5,3.7,8.0,329.8,0.40,3.2,6.2,"10:15:20",1
"24/02/12","10:30",0.0,7.7,71.6,1023.4,276.4,3.6,6.3,250.4,0.37,2.9,6.3,"10:23:24",1
"24/02/12","10:40",0.0,7.5,70.8,1023.4,297.5,4.0,7.8,335.8,0.21,2.6,6.3,"10:35:36",1
"24/02/12","10:50",0.0,7.8,70.5,1023.4,286.4,3.4,6.3,315.3,0.27,2.8,6.1,"10:49:52",1
"24/02/12","11:00",0.0,8.0,69.6,1023.4,295.1,3.9,7.9,314.6,0.27,2.8,6.2,"10:50:58",1
"24/02/12","11:10",0.0,8.2,68.8,1023.4,307.4,4.1,8.7,334.7,0.42,2.9,6.5,"11:00:56",1
"24/02/12","11:20",0.0,8.7,67.5,1023.4,311.0,3.6,6.8,332.8,0.52,3.1,6.4,"11:12:32",1
"24/02/12","11:30",0.0,8.7,67.7,1023.7,312.5,3.9,7.5,313.9,0.34,3.1,6.5,"11:23:54",1
"24/02/12","11:40",0.0,9.0,66.3,1023.7,311.9,3.1,5.5,299.2,0.38,3.1,6.6,"11:39:22",1
"24/02/12","11:50",0.0,8.7,66.3,1023.9,329.9,4.1,8.8,343.5,0.29,2.8,6.7,"11:45:02",1
"24/02/12","12:00",0.0,9.1,65.4,1023.7,323.4,3.2,5.6,319.2,0.36,3.0,6.7,"11:50:16",1
"24/02/12","12:10",0.0,9.1,65.2,1023.0,333.8,3.2,5.8,342.1,0.44,3.0,6.7,"12:06:14",1
"24/02/12","12:20",0.0,9.7,64.0,1023.2,318.4,3.1,7.3,336.3,0.57,3.3,6.8,"12:12:24",1
"24/02/12","12:30",0.0,9.6,62.4,1023.2,328.2,3.7,8.7,332.8,0.46,2.8,7.0,"12:28:08",1
"24/02/12","12:40",0.0,9.7,63.3,1023.2,341.7,3.9,7.2,344.7,0.43,3.1,7.0,"12:35:52",1
"24/02/12","12:50",0.0,9.4,63.1,1023.0,319.6,4.4,7.2,334.3,0.30,2.8,7.2,"12:43:50",1
"24/02/12","13:00",0.0,9.7,62.1,1023.0,319.1,4.5,10.2,344.7,0.39,2.8,7.1,"12:51:44",1
"24/02/12","13:10",0.0,10.5,59.6,1023.0,281.7,3.1,5.1,326.4,0.62,3.0,7.5,"13:03:26",1
"24/02/12","13:20",0.0,10.9,59.5,1023.2,295.6,3.0,5.7,339.8,0.59,3.4,7.3,"13:15:14",1
"24/02/12","13:30",0.0,10.9,57.4,1023.2,313.5,3.1,4.9,319.9,0.59,2.9,7.3,"13:21:06",1
"24/02/12","13:40",0.0,10.8,58.2,1023.4,303.4,3.1,5.0,310.7,0.42,3.0,7.5,"13:34:08",1
"24/02/12","13:50",0.0,10.3,58.3,1023.0,344.6,3.2,6.4,342.7,0.32,2.5,7.7,"13:48:54",1
"24/02/12","14:00",0.0,10.0,58.2,1023.0,339.7,3.7,7.1,325.5,0.27,2.2,7.7,"13:57:58",1
"24/02/12","14:10",0.0,9.8,62.0,1023.0,332.6,3.4,7.7,312.7,0.12,2.9,7.8,"14:00:08",1
"24/02/12","14:20",0.0,9.5,63.2,1023.2,335.6,2.7,4.8,333.4,0.09,2.9,8.1,"14:10:08",1
"24/02/12","14:30",0.0,9.3,64.4,1023.0,345.9,2.8,6.0,339.9,0.08,3.0,7.9,"14:24:10",1
"24/02/12","14:40",0.0,9.2,66.4,1023.4,342.5,3.7,8.1,345.7,0.12,3.3,8.0,"14:37:14",1
"24/02/12","14:50",0.0,8.7,70.7,1023.7,341.2,4.4,7.5,327.7,0.24,3.7,8.1,"14:46:46",1
"24/02/12","15:00",0.0,9.5,67.4,1023.4,338.0,2.5,4.5,335.1,0.27,3.8,8.0,"14:50:16",1
"24/02/12","15:10",0.0,9.5,66.7,1023.2,343.7,3.4,8.7,343.7,0.21,3.7,8.2,"15:05:32",1
"24/02/12","15:20",0.0,9.0,67.5,1023.7,344.5,3.2,7.4,354.3,0.05,3.4,8.2,"15:10:14",1
"24/02/12","15:30",0.0,8.6,68.5,1023.4,350.0,3.5,6.4,346.5,0.04,3.2,8.2,"15:27:14",1
"24/02/12","15:40",0.0,9.3,67.3,1023.4,346.9,3.9,7.2,331.1,0.20,3.6,8.3,"15:36:18",1
"24/02/12","15:50",0.0,9.2,65.1,1023.7,338.3,3.9,8.2,333.6,0.13,3.0,8.3,"15:47:40",1
"24/02/12","16:00",0.0,9.2,66.2,1023.4,341.1,3.1,5.6,335.9,0.08,3.3,8.2,"15:52:10",1
"24/02/12","16:10",0.0,8.8,68.2,1023.9,347.9,2.6,4.2,7.6,0.02,3.3,8.2,"16:05:14",1
"24/02/12","16:20",0.0,8.4,70.0,1024.1,348.6,3.1,6.0,331.6,0.02,3.3,8.2,"16:18:24",1
"24/02/12","16:30",0.0,8.5,71.2,1024.1,356.8,3.4,5.1,1.2,0.09,3.6,8.1,"16:22:48",1
"24/02/12","16:40",0.0,8.3,71.1,1024.1,358.0,3.1,5.5,345.5,0.04,3.4,8.2,"16:33:08",1
"24/02/12","16:50",0.0,8.3,71.5,1024.1,353.1,2.7,5.8,342.6,0.04,3.5,8.1,"16:47:20",1
"24/02/12","17:00",0.0,8.1,71.9,1024.4,350.5,2.6,4.7,6.8,0.03,3.4,8.2,"16:59:44",1
"24/02/12","17:10",0.0,7.9,72.6,1024.4,341.1,2.7,4.5,307.9,0.01,3.3,8.2,"17:07:12",1
"24/02/12","17:20",0.0,7.4,73.6,1024.4,335.9,2.8,4.3,344.6,0.00,3.0,8.2,"17:11:44",1
"24/02/12","17:30",0.0,7.1,74.3,1024.6,320.7,2.6,3.5,323.0,0.00,2.9,8.1,"17:27:28",1
"24/02/12","17:40",0.0,6.8,75.1,1024.9,320.2,2.6,4.0,320.9,0.00,2.7,8.1,"17:39:52",1
"24/02/12","17:50",0.0,6.8,75.8,1025.1,323.4,3.7,6.3,306.7,0.00,2.9,8.2,"17:40:40",1
"24/02/12","18:00",0.0,6.5,76.7,1025.1,325.3,3.4,5.2,324.3,0.00,2.7,8.2,"17:56:24",1
"24/02/12","18:10",0.0,6.3,77.5,1024.9,322.0,3.2,4.5,320.3,0.00,2.7,8.1,"18:08:32",1
"24/02/12","18:20",0.0,6.0,78.5,1025.3,333.3,3.1,5.0,334.7,0.00,2.6,8.1,"18:17:52",1
"24/02/12","18:30",0.0,5.7,79.2,1025.1,329.8,2.5,4.0,338.0,0.00,2.4,8.0,"18:28:32",1
"24/02/12","18:40",0.0,5.4,80.1,1025.1,351.6,2.1,3.1,22.9,0.00,2.3,7.9,"18:33:30",1
"24/02/12","18:50",0.0,5.2,80.8,1025.3,315.8,2.5,4.0,349.7,0.00,2.2,8.0,"18:40:26",1
"24/02/12","19:00",0.0,4.7,81.7,1025.6,292.7,1.8,2.6,304.8,0.00,1.9,7.9,"18:53:04",1
"24/02/12","19:10",0.0,4.5,82.8,1025.3,281.9,1.5,2.2,270.1,0.00,1.9,7.7,"19:02:20",1
"24/02/12","19:20",0.0,4.2,83.7,1025.3,306.0,1.5,1.8,318.6,0.00,1.7,7.6,"19:19:42",1
"24/02/12","19:30",0.0,3.9,84.6,1025.3,303.0,1.5,1.8,317.1,0.00,1.6,7.8,"19:20:24",1
"24/02/12","19:40",0.0,3.8,85.4,1025.3,309.5,1.8,2.7,318.2,0.00,1.6,7.6,"19:32:52",1
"24/02/12","19:50",0.0,3.6,86.4,1025.1,24.6,0.8,1.8,327.5,0.00,1.6,7.5,"19:49:58",1
"24/02/12","20:00",0.0,2.9,87.1,1025.3,326.3,2.0,2.4,321.8,0.00,1.0,7.5,"19:51:44",1
"24/02/12","20:10",0.0,2.9,88.1,1025.6,319.0,2.0,3.3,338.2,0.00,1.2,7.5,"20:00:56",1
"24/02/12","20:20",0.0,3.0,88.8,1025.3,288.5,1.7,2.1,313.5,0.00,1.4,7.4,"20:11:20",1
"24/02/12","20:30",0.0,3.1,89.5,1025.6,305.4,2.3,3.4,324.3,0.00,1.6,7.5,"20:28:48",1
"24/02/12","20:40",0.0,2.9,89.9,1025.3,306.4,1.8,3.4,321.0,0.00,1.4,7.2,"20:31:28",1
"24/02/12","20:50",0.0,2.7,90.4,1025.8,297.7,1.7,2.6,316.0,0.00,1.3,7.3,"20:41:52",1
"24/02/12","21:00",0.0,2.4,90.8,1025.6,295.4,1.3,2.0,317.7,0.00,1.1,7.3,"20:50:32",1
"24/02/12","21:10",0.0,2.7,91.2,1025.8,280.2,2.2,3.1,304.9,0.00,1.5,7.2,"21:07:48",1
"24/02/12","21:20",0.0,2.6,91.4,1025.6,299.8,1.6,2.7,302.8,0.00,1.4,7.2,"21:12:26",1
"24/02/12","21:30",0.0,2.3,91.6,1025.8,313.8,1.2,2.4,325.0,0.00,1.1,7.1,"21:24:50",1
"24/02/12","21:40",0.0,1.9,91.8,1025.6,308.9,1.2,2.2,322.5,0.00,0.7,7.1,"21:36:26",1
"24/02/12","21:50",0.0,1.6,92.1,1025.8,323.2,1.6,1.8,322.7,0.00,0.5,6.8,"21:40:42",1
"24/02/12","22:00",0.0,1.3,92.4,1025.8,319.2,1.7,2.1,324.3,0.00,0.2,6.9,"21:53:52",1
"24/02/12","22:10",0.0,1.2,92.7,1025.8,304.4,1.2,2.0,332.6,0.00,0.2,6.9,"22:08:08",1
"24/02/12","22:20",0.0,1.1,93.0,1025.8,315.7,1.2,1.7,337.4,0.00,0.1,7.0,"22:18:16",1
"24/02/12","22:30",0.0,0.7,93.1,1025.6,325.4,1.6,2.4,319.6,0.00,-0.2,6.8,"22:23:04",1
"24/02/12","22:40",0.0,0.6,93.4,1025.8,304.4,1.5,1.9,316.8,0.00,-0.3,6.8,"22:32:32",1
"24/02/12","22:50",0.0,0.5,93.6,1025.6,302.5,1.5,1.9,313.7,0.00,-0.4,6.8,"22:44:24",1
"24/02/12","23:00",0.0,0.5,93.9,1025.6,319.6,1.6,2.0,326.5,0.00,-0.3,6.8,"22:55:04",1
"24/02/12","23:10",0.0,0.5,94.0,1025.8,325.6,1.7,2.1,322.1,0.00,-0.3,6.6,"23:07:28",1
"24/02/12","23:20",0.0,0.4,94.3,1025.8,311.5,1.6,1.9,319.3,0.00,-0.4,6.4,"23:14:24",1
"24/02/12","23:30",0.0,0.5,94.4,1025.6,318.6,1.7,2.2,325.2,0.00,-0.3,6.5,"23:23:04",1
"24/02/12","23:40",0.0,0.2,94.6,1025.3,316.1,1.6,1.9,314.6,0.00,-0.5,6.5,"23:32:56",1
"24/02/12","23:50",0.0,-0.1,94.8,1025.8,319.2,1.8,2.4,322.3,0.00,-0.8,6.4,"23:42:56",1
"24/02/12","24:00",0.0,-0.3,95.1,1025.3,320.4,1.7,2.4,318.3,0.00,-0.9,6.5,"23:54:48",1
